Regional Weather Roundup
Issued by NWS

Home | Current Version | Previous Version | Graphics & Text | Print | Product List | Glossary On
Versions: 1 2 3 4 5 6 7 8 9 10 11 12 13 14 15 16 17 18 19 20 21 22 23 24 25 26 27 28 29 30 31 32 33 34 35 36 37 38 39 40 41 42 43 44 45 46 47 48 49 50
000
ASUS43 KIND 022059
RWRIN

WEATHER ROUNDUP FOR INDIANA
NATIONAL WEATHER SERVICE INDIANAPOLIS IN
400 PM EST MON MAR 02 2015

NOTE: "FAIR" INDICATES FEW OR NO CLOUDS BELOW 12,000 FEET WITH NO
SIGNIFICANT WEATHER AND/OR OBSTRUCTIONS TO VISIBILITY.

* - STATION DOES NOT REPORT WEATHER SUCH AS PRECIPITATION OR FOG.

+ - STATION NOT QUALITY CONTROLLED BY THE NATIONAL WEATHER SERVICE.
    USE DATA WITH CAUTION...ESPECIALLY DEWPOINT AND RELATIVE
    HUMIDITY OBSERVATIONS.

INZ001>003-010>013-019-020-022200-
NORTHWEST INDIANA

CITY           SKY/WX    TMP DP  RH WIND       PRES   REMARKS
GARY /AIRPORT/ PTSUNNY   30  16  55 NE8       30.46F WCI  23
VALPARAISO     NOT AVBL

$$

LMZ046-743>745-022200-
SOUTHERN LAKE MICHIGAN

STATION/POSITION TIME  TEMP WIND        PRES
                       AIR  DIR/SP/G
                 (UTC) (F)  (DEG/KT/KT) (MB)
MICHIGAN CITY    2000   31  290/  2/  4   N/A

$$

INZ004-005-014>016-021>024-022200-
NORTH CENTRAL INDIANA

CITY           SKY/WX    TMP DP  RH WIND       PRES   REMARKS
GOSHEN         SUNNY     27  14  58 SW8       30.44F WCI  19
SOUTH BEND     NOT AVBL

$$

INZ006>009-017-018-025>027-022200-
NORTHEAST INDIANA

CITY           SKY/WX    TMP DP  RH WIND       PRES   REMARKS
ANGOLA *+      SUNNY     28  16  59 W3        30.43F
FORT WAYNE     NOT AVBL

$$

INZ028-029-035-036-043>045-051>053-022200-
WEST CENTRAL INDIANA

CITY           SKY/WX    TMP DP  RH WIND       PRES   REMARKS
GREENCASTLE +  MOSUNNY   32  12  43 E5        30.44F WCI  27
LAFAYETTE      NOT AVBL
TERRE HAUTE    MOSUNNY   33  15  47 E5        30.44F WCI  29

$$

INZ030>032-037>040-046>048-054>057-064-065-022200-
CENTRAL INDIANA

CITY           SKY/WX    TMP DP  RH WIND       PRES   REMARKS
GREENWOOD *+   MOSUNNY   28  10  47 SE9       30.45F WCI  20
INDIANAPOLIS   NOT AVBL
-EAGLE CREEK   PTSUNNY   31  15  52 NW3       30.42F
SHELBYVILLE    PTSUNNY   30  15  53 E5        30.45F WCI  25

$$

INZ033-034-041-042-049-050-058-059-022200-
EAST CENTRAL INDIANA

CITY           SKY/WX    TMP DP  RH WIND       PRES   REMARKS
MUNCIE         MOSUNNY   28  14  55 CALM      30.44F

$$

INZ060-061-067>069-081>083-085>088-022200-
SOUTHWEST INDIANA

CITY           SKY/WX    TMP DP  RH WIND       PRES   REMARKS
EVANSVILLE     NOT AVBL

$$

INZ062-063-066-070>080-084-089>092-022200-
SOUTH CENTRAL AND SOUTHEAST INDIANA

CITY           SKY/WX    TMP DP  RH WIND       PRES   REMARKS
BLOOMINGTON    SUNNY     38  12  34 CALM      30.41F
SEYMOUR +      MOSUNNY   34  16  47 N8        30.45F WCI  27

$$



USA.gov is the U.S. government's official web portal to all federal, state and local government web resources and services.